Piney Island, NC

4:33 PM EDT on April 24, 2017 (GMT -0400)
Piney Island

Weather History for KNBT - July, 2013

Change the Weather History Date:

Thursday, July 18, 2013

  Actual Average (KMRH) Record (KMRH)
Temperature  
Mean Temperature 84 °F -  
Max Temperature 90 °F 87 °F 97 °F (1983)
Min Temperature 78 °F 71 °F 61 °F (1987)
Cooling Degree Days 19    
Growing Degree Days 34 (Base 50)    
Moisture  
Dew Point 73 °F    
Average Humidity 71    
Maximum Humidity 93    
Minimum Humidity 52    
Precipitation  
Precipitation 0.00 in - - ()
Sea Level Pressure  
Sea Level Pressure 30.13 in    
Wind  
Wind Speed 5 mph (WSW)    
Max Wind Speed 10 mph    
Max Gust Speed 16 mph    
Visibility 9 miles    
Events      
Averages and records for this station are not official NWS values.
T = Trace of Precipitation, MM = Missing Value Source: NWS Daily Summary

Daily Weather History Graph

Daily Weather History Graph

Search for Another Location

Airport or City:

Trip Planner

Search our weather history database for the weather conditions in past years. The results will help you decide how hot, cold, wet, or windy it might be!

Date:

Astronomy

Jul. 18, 2013 Rise Set
Actual Time 6:05 AM EDT 8:18 PM EDT
Civil Twilight 5:36 AM EDT 8:47 PM EDT
Nautical Twilight 5:01 AM EDT 9:22 PM EDT
Astronomical Twilight 4:23 AM EDT 10:00 PM EDT
Moon 4:14 PM EDT (7/18) 1:51 AM EDT (7/18)
Length of Visible Light 15h 10m
Length of Day
14h 13m
Waxing Gibbous, 77% of the Moon is Illuminated
Jul 18
Waxing Gibbous
Jul 22
Full
Jul 29
Last Quarter
Aug 6
New
Aug 14
First Quarter

Hourly Weather History & Observations

Time (EDT) Temp. Heat Index Dew Point Humidity Pressure Visibility Wind Dir Wind Speed Gust Speed Precip Events Conditions
12:56 AM 81.0 °F 85.8 °F 73.0 °F 77% 30.15 in 10.0 mi West 4.6 mph - N/A   Clear
1:56 AM 80.1 °F 84.2 °F 73.0 °F 79% 30.14 in 10.0 mi West 5.8 mph - N/A   Clear
2:56 AM 79.0 °F - 75.9 °F 90% 30.12 in 7.0 mi Calm Calm - N/A   Clear
3:56 AM 78.1 °F - 75.9 °F 93% 30.13 in 6.0 mi West 3.5 mph - N/A   Clear
4:56 AM 78.1 °F - 75.0 °F 90% 30.14 in 8.0 mi WNW 4.6 mph - N/A   Clear
5:56 AM 79.0 °F - 73.9 °F 84% 30.14 in 9.0 mi WNW 3.5 mph - N/A   Clear
6:56 AM 79.0 °F - 73.0 °F 82% 30.15 in 8.0 mi Calm Calm - N/A   Clear
7:56 AM 82.9 °F 88.8 °F 73.0 °F 72% 30.15 in 8.0 mi NW 4.6 mph - N/A   Clear
8:56 AM 86.0 °F 90.7 °F 70.0 °F 59% 30.14 in 9.0 mi WNW 4.6 mph - N/A   Clear
9:56 AM 87.1 °F 92.0 °F 70.0 °F 57% 30.15 in 10.0 mi West 4.6 mph - N/A   Unknown
10:56 AM 90.0 °F 95.4 °F 70.0 °F 52% 30.16 in 10.0 mi North 3.5 mph - N/A   Partly Cloudy
12:56 PM 89.1 °F 96.0 °F 72.0 °F 57% 30.15 in 10.0 mi ENE 8.1 mph - N/A   Clear
1:56 PM 90.0 °F 96.9 °F 72.0 °F 55% 30.14 in 10.0 mi ENE 5.8 mph - N/A   Partly Cloudy
2:56 PM 90.0 °F 97.9 °F 73.0 °F 57% 30.12 in 10.0 mi SSE 6.9 mph - N/A   Partly Cloudy
3:56 PM 90.0 °F 96.9 °F 72.0 °F 55% 30.11 in 8.0 mi South 10.4 mph 16.1 mph N/A   Partly Cloudy
4:56 PM 90.0 °F 96.9 °F 72.0 °F 55% 30.10 in 10.0 mi South 9.2 mph - N/A   Clear
5:56 PM 88.0 °F 93.8 °F 71.1 °F 57% 30.09 in 10.0 mi South 10.4 mph - N/A   Clear
8:56 PM 81.0 °F 86.7 °F 75.0 °F 82% 30.12 in 10.0 mi SSW 4.6 mph - N/A   Clear
9:56 PM 80.1 °F 85.4 °F 75.9 °F 87% 30.12 in 10.0 mi SW 5.8 mph - N/A   Clear
11:56 PM 80.1 °F 85.4 °F 75.9 °F 87% 30.14 in 9.0 mi SW 5.8 mph - N/A   Clear